Regional Weather Roundup
Issued by NWS

Home | Current Version | Previous Version | Text Only | Print | Product List | Glossary On
Versions: 1 2 3 4 5 6 7 8 9 10 11 12 13 14 15 16 17 18 19 20 21 22 23 24 25 26 27 28 29 30 31 32 33 34 35 36 37 38 39 40 41 42 43 44 45 46 47 48 49 50
000
ASUS43 KIND 031109
RWRIN

WEATHER ROUNDUP FOR INDIANA
NATIONAL WEATHER SERVICE INDIANAPOLIS IN
600 AM EST TUE MAR 03 2015

NOTE: "FAIR" INDICATES FEW OR NO CLOUDS BELOW 12,000 FEET WITH NO
SIGNIFICANT WEATHER AND/OR OBSTRUCTIONS TO VISIBILITY.

* - STATION DOES NOT REPORT WEATHER SUCH AS PRECIPITATION OR FOG.

+ - STATION NOT QUALITY CONTROLLED BY THE NATIONAL WEATHER SERVICE.
    USE DATA WITH CAUTION...ESPECIALLY DEWPOINT AND RELATIVE
    HUMIDITY OBSERVATIONS.

INZ001>003-010>013-019-020-031200-
NORTHWEST INDIANA

CITY           SKY/WX    TMP DP  RH WIND       PRES   REMARKS
GARY /AIRPORT/ LGT SNOW  28  18  64 SE8       30.09F WCI  20
KNOX *+          N/A     28  10  47 SE16      30.08F WCI  17
LA PORTE +     FLURRIES  28  20  73 S7        30.09F WCI  20
MICHIGAN CITY+ LGT SNOW  27  14  59 CALM      30.10S
MONTICELLO +   MIX PCPN  27  22  82 SE7       30.09F WCI  19
RENSSELAER +   MIX PCPN  28  27  93 SE12      30.09R WCI  18
VALPARAISO     FRZ RAIN  26  19  74 S7        30.09R WCI  18

$$

LMZ046-743>745-031200-
SOUTHERN LAKE MICHIGAN

STATION/POSITION TIME  TEMP WIND        PRES
                       AIR  DIR/SP/G
                 (UTC) (F)  (DEG/KT/KT) (MB)
MICHIGAN CITY    1100   26  130/ 10/ 12   N/A

$$

INZ004-005-014>016-021>024-031200-
NORTH CENTRAL INDIANA

CITY           SKY/WX    TMP DP  RH WIND       PRES   REMARKS
GOSHEN         CLOUDY    25  16  68 SE7       30.12R WCI  17
LOGANSPORT +   MIX PCPN  27  23  86 SE10      30.12R WCI  17
PERU/GRISSOM   FRZ RAIN  27  21  80 SE13      30.10R WCI  16
ROCHESTER +    MIX PCPN  28  23  80 SE12      30.10F WCI  18
SOUTH BEND     LGT SNOW  26  17  68 SE12      30.10R WCI  16
WARSAW +       MIX PCPN  27  18  69 SE5       30.12R WCI  21

$$

INZ006>009-017-018-025>027-031200-
NORTHEAST INDIANA

CITY           SKY/WX    TMP DP  RH WIND       PRES   REMARKS
ANGOLA *+      MOCLDY    21  14  73 SE9       30.10F WCI  11
AUBURN +       CLOUDY    23  14  68 SE3       30.13F
FORT WAYNE     FRZ RAIN  24  16  71 SE8       30.13S WCI  15
HUNTINGTON +   CLOUDY    24  14  65 SE5       30.12F WCI  18

$$

INZ028-029-035-036-043>045-051>053-031200-
WEST CENTRAL INDIANA

CITY           SKY/WX    TMP DP  RH WIND       PRES   REMARKS
CRAWFORDSVL +  CLOUDY    26  16  64 SE7       30.08S WCI  19
GREENCASTLE +  CLOUDY    28  18  64 E5        30.08F WCI  23
LAFAYETTE      CLOUDY    27  22  81 S5        30.11R WCI  22
TERRE HAUTE    CLOUDY    31  20  63 SE9       30.08S WCI  23

$$

INZ030>032-037>040-046>048-054>057-064-065-031200-
CENTRAL INDIANA

CITY           SKY/WX    TMP DP  RH WIND       PRES   REMARKS
CP ATTERBURY + CLOUDY    30  19  64 S3        30.11R
FRANKFORT +    CLOUDY    28  23  82 E10       30.10F WCI  18
GREENWOOD *+   CLOUDY    28  16  59 SE6       30.09F WCI  22
INDIANAPOLIS   CLOUDY    28  17  63 SE10      30.07F WCI  19
-EAGLE CREEK   CLOUDY    27  19  72 SE9       30.07F WCI  18
KOKOMO *+      MOCLDY    27  21  80 SE13      30.09F WCI  16
MARION +       MIX PCPN  26  18  72 SE10      30.10F WCI  16
MT COMFORT *+  CLOUDY    27  12  54 SE7       30.10R WCI  19
SHELBYVILLE    CLOUDY    31  19  61 SE8       30.11R WCI  23
ZIONSVILLE +   CLOUDY    28  19  69 SE7       30.09S WCI  20

$$

INZ033-034-041-042-049-050-058-059-031200-
EAST CENTRAL INDIANA

CITY           SKY/WX    TMP DP  RH WIND       PRES   REMARKS
MUNCIE         MIX PCPN  27  18  69 VRB3      30.12R

$$

INZ060-061-067>069-081>083-085>088-031200-
SOUTHWEST INDIANA

CITY           SKY/WX    TMP DP  RH WIND       PRES   REMARKS
EVANSVILLE     CLOUDY    36  24  62 SE6       30.10S
HUNTINGBURG *+ CLOUDY    34  21  60 SE6       30.11R WCI  29
WASHINGTON +   CLOUDY    32  22  68 SE8       30.08F WCI  25

$$

INZ062-063-066-070>080-084-089>092-031200-
SOUTH CENTRAL AND SOUTHEAST INDIANA

CITY           SKY/WX    TMP DP  RH WIND       PRES   REMARKS
BLOOMINGTON    CLOUDY    31  19  61 S9        30.09R WCI  23
NORTH VERNON + CLOUDY    32  18  55 SE10      30.10F WCI  24
SEYMOUR +      CLOUDY    32  19  59 SE9       30.11S WCI  24

$$



USA.gov is the U.S. government's official web portal to all federal, state and local government web resources and services.